Regional Weather Roundup
Issued by NWS Cleveland, OH

Home | Current Version | Previous Version | Graphics & Text | Print | Product List | Glossary On
Versions: 1 2 3 4 5 6 7 8 9 10 11 12 13 14 15 16 17 18 19 20 21 22 23 24 25 26 27 28 29 30 31 32 33 34 35 36 37 38 39 40 41 42 43 44 45 46 47 48 49 50
000
ASUS41 KCLE 091802
RWRCLE
OHIO REGIONAL WEATHER ROUNDUP
NATIONAL WEATHER SERVICE CLEVELAND, OH
100 PM EST TUE FEB 09 2016

NOTE: "FAIR" INDICATES FEW OR NO CLOUDS BELOW 12,000 FEET WITH NO
SIGNIFICANT WEATHER AND/OR OBSTRUCTIONS TO VISIBILITY.

OHZ001>008-015>018-024>027-034-035-043-044-091900-
   NORTHWEST OHIO

CITY           SKY/WX    TMP DP  RH WIND       PRES   REMARKS
DEFIANCE       CLOUDY    30  21  69 NW16G28   29.66S WCI  19
FINDLAY        CLOUDY    28  24  85 W14       29.63S FOG     WCI  17
TOLEDO EXPRESS CLOUDY    29  24  82 W10       29.62S WCI  20
TOLEDO EXEC    LGT SNOW  31  27  85 NW15      29.62S FOG     WCI  20
LIMA           CLOUDY    25  21  85 W18       29.65F WCI  11
$$

OHZ009>014-019>023-028>033-038-089-091900-
   NORTHEAST OHIO

CITY           SKY/WX    TMP DP  RH WIND       PRES   REMARKS
CLE-HOPKINS    CLOUDY    30  25  81 SW15      29.60F WCI  19
CLE-LAKEFRONT  CLOUDY    32  26  78 SW16      29.58S WCI  21
CUY CO. ARPT   CLOUDY    32  28  86 W9        29.58S WCI  24
LORAIN-ELYRIA  CLOUDY    30  24  78 W16       29.59F HAZE    WCI  19
ASHTABULA      CLOUDY    31  26  82 W10       29.55F WCI  22
AKRON-CANTON   CLOUDY    29  23  78 SW12      29.58F WCI  19
WOOSTER        CLOUDY    28  23  81 W15       29.59F WCI  16
MANSFIELD      CLOUDY    26  23  88 SW15      29.60S WCI  14
YOUNGSTOWN     FLURRIES  30  25  81 W13       29.56S WCI  20
$$

OHZ042-051>053-060>062-070>072-077>081-091900-
  SOUTHWEST OHIO

CITY           SKY/WX    TMP DP  RH WIND       PRES   REMARKS
CINC-COVINGTON LGT SNOW  23  16  74 W15       29.76F WCI  10
CINC-LUNKEN    CLOUDY    24  17  74 W17       29.80S WCI  11
HAMILTON       LGT SNOW  25  18  74 W17G23    29.78S WCI  12
DAYTON         LGT SNOW  24  20  84 W17       29.71S VSB 1   WCI  11
WRIGHT-PAT AFB FLURRIES  26  18  73 W14G21    29.71S WCI  14
DAYTON GENERAL CLOUDY    24  16  71 W13       29.72S WCI  12
WILMINGTON     CLOUDY    22  17  81 W15       29.71S WCI   9
$$

OHZ036-037-039>041-045>050-054>059-063>069-073>076-082>088-091900-
  CENTRAL AND SOUTHEAST OHIO

CITY           SKY/WX    TMP DP  RH WIND       PRES   REMARKS
COLUMBUS       CLOUDY    26  19  74 W15       29.67F WCI  14
OSU AIRPORT    CLOUDY    26  20  77 W14       29.66F WCI  14
BOLTON FIELD   CLOUDY    27  19  74 W15       29.69F WCI  15
RICKENBACK AFB NOT AVBL
NEWARK         CLOUDY    24  20  84 MISG      29.66F
MARION         CLOUDY    26  19  74 W13       29.64F WCI  15
LANCASTER      CLOUDY    24  19  81 W12       29.69F WCI  13
ZANESVILLE     LGT SNOW  26  20  77 W8        29.66F WCI  18
NEW PHILLY     CLOUDY    26  22  84 W10       29.64S WCI  16
$$



USA.gov is the U.S. government's official web portal to all federal, state and local government web resources and services.